Location: Chiroubles
(46.1812°N, 4.6660°E)
Time: 19:26:10
(UTC+00:00)

Resurs 01 Rocket - Pass Details

Date: 15 August 2020
Orbit: 634 x 644 km, 98.0° (Epoch: 24 September)

Event Time Altitude Azimuth Distance (km) Brightness Sun altitude
Exits shadow 20:34:56 13° 186° (S) 1,822 3.6 -16.4°
Maximum altitude 20:38:42 51° 260° (W) 809 2.3 -16.9°
Drops below altitude 10° 20:43:03 10° 337° (NNW) 2,045 5.2 -17.4°
Sets 20:45:20 0° 342° (NNW) 2,961 6.1 -17.7°
